This is the latest recevied weather packets stored in our database for station/object OM8AKX-12. If no packets are shown the sender has not sent any weather packets the latest 10 day(s).
| Time | Temp. | Humidity | Pressure | Rain* | Wind** | Luminosity | Snow |
|---|---|---|---|---|---|---|---|
| 1777474474 | 9.44° C | 30% | 1018.6 hPa | - | - | - | - |
| 1777473574 | 11.11° C | 28% | 1018.1 hPa | - | - | - | - |
| 1777472674 | 11.11° C | 26% | 1018.2 hPa | - | - | - | - |
| 1777471774 | 12.22° C | 26% | 1018.1 hPa | - | - | - | - |
| 1777470874 | 12.78° C | 25% | 1017.8 hPa | - | - | - | - |
| 1777469974 | 12.22° C | 27% | 1017.9 hPa | - | - | - | - |
| 1777469074 | 10.56° C | 29% | 1017.8 hPa | - | - | - | - |
| 1777468174 | 12.22° C | 27% | 1017.9 hPa | - | - | - | - |
| 1777467274 | 11.11° C | 29% | 1017.8 hPa | - | - | - | - |
| 1777466374 | 12.22° C | 28% | 1017.9 hPa | - | - | - | - |
| 1777465474 | 11.67° C | 27% | 1017.8 hPa | - | - | - | - |
| 1777464574 | 12.22° C | 27% | 1017.8 hPa | - | - | - | - |
| 1777463674 | 12.22° C | 28% | 1017.7 hPa | - | - | - | - |
| 1777462774 | 12.78° C | 27% | 1017.8 hPa | - | - | - | - |
| 1777461874 | 12.78° C | 28% | 1017.9 hPa | - | - | - | - |
| 1777460973 | 12.78° C | 27% | 1017.8 hPa | - | - | - | - |
| 1777460074 | 12.78° C | 27% | 1017.9 hPa | - | - | - | - |
| 1777459173 | 13.33° C | 27% | 1018 hPa | - | - | - | - |
| 1777458273 | 12.78° C | 27% | 1018 hPa | - | - | - | - |
| 1777457373 | 12.22° C | 28% | 1018 hPa | - | - | - | - |
| 1777456473 | 12.78° C | 27% | 1018 hPa | - | - | - | - |
| 1777455573 | 12.22° C | 28% | 1018.1 hPa | - | - | - | - |
| 1777454673 | 12.78° C | 28% | 1018.1 hPa | - | - | - | - |
| 1777453773 | 12.78° C | 27% | 1018.2 hPa | - | - | - | - |
| 1777452873 | 12.22° C | 27% | 1018.2 hPa | - | - | - | - |
* Rain since midnight (hover to see other rain measurements)
** Current wind speed in m/s (hover to see current wind gust speed)